Regional Weather Roundup
Issued by NWS

Home | Current Version | Previous Version | Graphics & Text | Print | Product List | Glossary Off
Versions: 1 2 3 4 5 6 7 8 9 10 11 12 13 14 15 16 17 18 19 20 21 22 23 24 25 26 27 28 29 30 31 32 33 34 35 36 37 38 39 40 41 42 43 44 45 46 47 48 49 50

000
ASUS43 KLSX 282207
RWRMO

WEATHER SUMMARY FOR MISSOURI
NATIONAL WEATHER SERVICE SPRINGFIELD MO
500 PM CDT THU MAY 28 2015

NOTE: "FAIR" INDICATES FEW OR NO CLOUDS BELOW 12,000 FEET WITH NO
       SIGNIFICANT WEATHER AND/OR OBSTRUCTIONS TO VISIBILITY.
       CURRENT SKY AND/OR WEATHER CONDITIONS ARE NOT AVAILABLE FOR
       CHILLICOTHE AND FARMINGTON.

MOZ001>031-035>038-043-044-053-054-282300-
...NORTHERN AND WESTERN MISSOURI...

CITY           SKY/WX    TMP DP  RH WIND       PRES   REMARKS
KANSAS CTY INT CLOUDY    71  66  84 S9        30.02F
KANSAS C DTWN  LGT RAIN  72  64  76 S9        30.01F
LEE`S SUMMIT   CLOUDY    72  66  81 SW5       30.03F
ST JOSEPH      CLOUDY    73  66  78 S12       29.99F
CHILLICOTHE      N/A     72  66  81 S7        30.05S
KIRKSVILLE     HVY RAIN  67  66  97 SW5       30.09R VSB 1

$$
MOZ066>068-077>081-088>096-101>105-282300-
...SOUTHWEST MISSOURI...

CITY           SKY/WX    TMP DP  RH WIND       PRES   REMARKS
SPRINGFIELD    CLOUDY    69  66  90 N12       30.03F
JOPLIN         PTSUNNY   77  67  71 VRB7      30.00F

$$
MOZ032>034-039>042-045>050-055>058-069>072-282300-
...CENTRAL MISSOURI...

CITY           SKY/WX    TMP DP  RH WIND       PRES   REMARKS
COLUMBIA       CLOUDY    74  66  76 CALM      30.05F
JEFFERSON CITY LGT RAIN  73  66  78 CALM      30.04S
ROLLA          PTSUNNY   78  65  63 S14       30.04F
SEDALIA        LGT RAIN  69  64  84 W7        30.06F
WHITEMAN AFB   LGT RAIN  68  66  94 E2        30.03F
WARRENSBURG    CLOUDY    68  66  94 E6        30.02F
OSAGE BEACH    PTSUNNY   72  63  73 NW7       30.05F

$$
MOZ051-052-059>065-282300-
...EAST CENTRAL MISSOURI...

CITY           SKY/WX    TMP DP  RH WIND       PRES   REMARKS
ST LOUIS INTL  CLOUDY    82  67  60 SE8       30.06F
SPIRIT OF STL  CLOUDY   N/A N/A N/A SE5       30.04F
ST CHARLES     CLOUDY    75  66  73 CALM      30.05F

$$
MOZ072>076-082>087-097>100-106>115-282300-
...SOUTH CENTRAL AND SOUTHEAST MISSOURI...

CITY           SKY/WX    TMP DP  RH WIND       PRES   REMARKS
CAPE GIRARDEAU MOSUNNY   79  68  69 SW9       30.09F
FARMINGTON     PTSUNNY   81  64  57 S10       30.13S
POPLAR BLUFF   PTSUNNY   79  67  66 SE7       30.08F
WEST PLAINS    PTSUNNY   76  65  68 SE10      30.08S

$$



USA.gov is the U.S. government's official web portal to all federal, state and local government web resources and services.